RADUGA-1 3 [-]

Last updated on Aug. 14, 2020, 5:30 a.m. UTC

1 22981U 94008A   20226.52612273 -.00000240  00000-0  00000+0 0  9999
2 22981  14.9025   5.2237 0003959  50.1970 187.0219  1.00226858 97110
UTC
Height (km)
Latitude
Longitude
Inclination
Orbital Period
UTC large
Height (km)
Speed (km/s)
/
Latitude / Longitude
Inclination (degrees)
Orbital Period (minutes)
Azimuth
Elevation
Range (km)
Doppler Factor
iOS Compass Heading
iOS Angle

Next 30 passes for location: Hong Kong

Rise time Rise Azimuth (degrees) Set time Set Azimuth (degrees) Duration Max altitude (degrees)

No matching passes for this satellites